Погода Красный Кут

Поиск расширенной информации на нашем сайте:

Полезная информация:

Новости сайта



02.01.2020
Опубликован Долгосрочный прогноз погоды по городам России и ближнего зарубежья на январь 2020 года.
Карты: Прогноз на январь и февраль 2020 года, Сравнение прогнозируемой аномалии приземной температуры воздуха на январь 2020 года по разным моделям.




Погода Красный Кут - сегодня

Время (UTC), дата Ветер
(°,м/с) 
Видим.   Явления Облачность Т
(°С)
Тd
(°С)
f(%) Тe
(°С)
Pmin
(гПа)
dP
(гПа)
Po
(мм)
O2
(г/м3)
Тmin Tmax R s Состояние
почвы
03 05.03.21 210 (ЮЗ) 6-10{10}  10 км    10/10 1500 м 
[Sc]
+1.3 +0.1 92 -2  1003.9  -0.9  748  300  +0.1      10  равномерный
мокрый или
старый снег
100% 
06 05.03.21 230 (ЮЗ) 5{11}  10 км  {дождь}  10/10 600 м 
[Sc]
+1.9 +0.9 93 -1  1005.2  1.3  749  300           
09 05.03.21 250 (З) 10 км    10/10 750 м 
[Sc]
+2.1 +1 92 -1  1006.6  1.3  750  300           
12 05.03.21 260 (З) 10 км  {дождь}  10/10 1500 м 
[Sc]
+1.7 +0 88 1008.6  1.9  752  301           
15 05.03.21 230 (ЮЗ) 10 км    6/4 1500 м средняя, верхняя 
[Sc|Ac trans|Ci fib]
+1 -0.1 92 -1  1010.7  2.1  753  302    +2.5  0.3     
18 05.03.21 310 (СЗ) 10 км    4/0 средняя 
[Ac trans]
-3.1 -3.3 99 -3  1013.1  2.3  755  308           
21 05.03.21 320 (СЗ) 10 км    4/0 средняя 
[Ac trans]
-3.6 -4.7 92 -3  1014.4  1.2  756  309           
00 06.03.21 330 (СЗ) 10 км    6/6 1500 м 
[Sc]
-3.9 -4.3 97 -3  1015.4  757  310           
03 06.03.21 тихо ()   10 км    8/4 1500 м средняя 
[Sc|Ac trans]
-7.1 -8.4 90 -7  1015.8  0.3  757  314  -7.3      равномерный
мокрый или
старый снег
100% 
06 06.03.21 350 (С) 10 км    10/6 1500 м средняя 
[Sc|Ac trans]
-3.9 -6.1 85 -5  1016  0.3  757  310           
09 06.03.21 040 (СВ) 10 км    10/6 1500 м средняя 
[Sc|Ac trans]
-2.2 -5 81 -4  1015  -1  757  308           
12 06.03.21 050 (СВ) 10 км    10/6 1500 м средняя 
[Sc|Ac trans]
-1.1 -5 75 -3  1013.7  -1.3  756  306           
15 06.03.21 050 (СВ) 10 км    10/4 1500 м средняя 
[Sc|Ac trans]
-2.5 -5.1 82 -4  1012.7  -1  755  308    -1.1       
18 06.03.21 350 (С) 10 км    6/4 1500 м средняя 
[Sc|Ac trans]
-3.7 -4.9 91 -5  1013.3  0.6  755  309           
21 06.03.21 350 (С) 10 км    8/4 1500 м средняя 
[Sc|Ac trans]
-5.1 -5.8 95 -6  1013.1  -0.2  755  311           
00 07.03.21 310 (СЗ) 10 км    10/10 900 м 
[Sc|Ac trans]
-6.4 -7.7 90 -6  1013.4  0.3  755  312           
03 07.03.21 230 (ЮЗ) 10 км  слаб. снег  10/10 480 м 
[Sc]
-5.9 -7.2 91 -7  1014.4  756  312  -7.3    0.0  равномерный
сухой снег
100% 
06 07.03.21 280 (З) 10 км  {снег}  ясно 
-5.6 -7.7 85 -10  1016.1  1.7  757  312           
09 07.03.21 270 (З) 10 км    ясно 
-3.4 -8.4 68 -8  1016.5  0.5  758  310           
12 07.03.21 240 (ЮЗ) 6{10}  10 км    ясно 
-2 -8.2 62 -6  1015.3  -1.2  757  308           
15 07.03.21 210 (ЮЗ) 5-10{11}  10 км    10/4 1500 м средняя, верхняя 
[Sc|Ac trans|Ci fib]
-2.8 -7.6 69 -6  1013.3  -2  755  308    -1.9       
18 07.03.21 200 (Ю) 6-11{11}  10 км    10/10 1500 м 
[Sc]
-3 -5.3 84 -7  1011.1  -2.1  754  308           
21 07.03.21 210 (ЮЗ) 7-12{13}  10 км    10/10 1500 м 
[Sc]
-3.6 -5.9 84 -8  1008.3  -2.8  752  307           
00 08.03.21 210 (ЮЗ) 6-10{13}  10 км    10/10 1500 м 
[Sc]
-2.8 -4.8 86 -7  1006.7  -1.6  750  306           
03 08.03.21 220 (ЮЗ) 7-11{13}  10 км  {снег}  10/10 1500 м 
[Sc]
-2 -4 86 -6  1006.2  -0.5  750  305  -3.7    0.4  равномерный
сухой снег
100% 
Время (UTC), дата Ветер
(°,м/с) 
Видим.   Явления Облачность Т
(°С)
Тd
(°С)
f(%) Тe
(°С)
Pmin
(гПа)
dP
(гПа)
Po
(мм)
O2
(г/м3)
Тmin Tmax R s Состояние
почвы

Для получения пояснительной информации подведите курсор к названию столбца.

ПОГОДА Красный Кут - архив

Всё, что Вы хотите узнать о погоде Красный Кут - удобно и подробно!

Выберите нужную дату (начиная с 1 января 2019* года) и нажмите кнопку "Найти".
Будут отображены архивные сводки погоды по пункту Красный Кут, начиная с указанной даты.


Отображать данные в формате CSV (для использования в таблицах Excel)


Внимание! Наш архив погоды предназначен исключительно для личного некоммерческого использования в познавательных целях. Если Вам необходимы официальные справки о состоянии погоды (для производственных, юридических, коммерческих и т.п. целей), обращайтесь в органы Росгидромета.

*Примечание: данная дата относится к архиву по метеостанциям СССР (Россия, СНГ, Балтия).
Архив по метеостанциям Зарубежной Европы и Азии (кроме Китая) хранится 10 дней, по другим регионам земного шара (Китай, Африка, Америка, Австралия, Океания) - 1 день.

Красный Кут - район местоположения метеостанции


Название, широта, долгота, высота метеостанции:
Красный Кут 50.9°ш. 46.1°д. 50 м над ур. моря [Российская Федерация]

Дополнительная информация

В oтличие oт бoльшинства пoгoдных сайтoв мы публикуем пoдрoбную метеoинфoрмацию в детальнoм прoфессиoнальнoм фoрмате.

Характеристики температуры и влажнoсти вoздуха измеряются на высoте 2 м в тени вдали oт зданий и деревьев.
Скoрoсть ветра измеряется на высoте 10 м (на урoвне рoста челoвека скoрoсть ветра ниже в 1.5-2 раза). Если метеoстанция нахoдится в гoрoде или в лесу, тo скoрoсть ветра занижена на 2-4 м/с пo сравнению с oткрытым местoм. Скoрoсть ветра над акватoриями крупных рек и oзёр, а также на вершинах хoлмoв на 2-5 м/с выше, чем в oбычных услoвиях.
Атмoсфернoе давление в разных тoчках местнoсти мoжет значительнo oтличаться oт давления на метеoстанции, в зависимoсти oт услoвий рельефа (при пoдъёме на 10 м давление пoнижается примернo на 1 мм рт.ст.).